CAPE
1 1 1 1 1 4 4 5 2 0 0 0 1 1 0 0 0 0 0 0 0 0 0 0 0 0 0 0 0 0 0 0 0 1 0 0 0 0 0 0 0 89 194 225 143
1 0 0 1 1 1 1 0 0 0 0 1 3 2 0 0 0 0 0 0 0 0 0 0 0 0 0 0 0 0 0 0 0 0 0 0 0 0 0 0 0 61 266 212 92
0 0 0 0 0 0 0 0 0 0 0 1 2 1 0 0 0 0 0 0 0 0 0 0 0 0 0 0 0 0 0 0 0 0 0 0 0 0 0 0 0 0 2 219 165
0 0 0 0 0 0 0 0 0 0 0 0 1 3 0 0 0 0 0 0 0 0 0 0 0 0 0 0 0 0 0 0 0 0 0 0 0 0 0 0 0 0 0 0 178
0 0 0 0 0 0 0 0 0 0 0 0 4 8 1 0 0 0 0 0 0 0 0 0 0 0 0 0 0 0 0 0 0 0 0 0 0 0 0 0 0 0 0 0 148
0 0 0 0 0 0 0 0 0 0 0 0 4 11 1 0 0 0 0 0 0 0 0 0 0 0 0 0 0 0 0 0 0 0 0 0 0 0 0 0 0 0 0 0 136
0 0 0 0 0 0 0 0 0 0 0 0 1 4 4 0 0 0 0 0 0 0 0 0 0 0 0 0 0 0 0 0 0 0 0 0 0 0 0 0 0 0 0 0 79
0 0 0 0 0 0 0 0 0 0 0 0 0 0 0 0 0 0 0 0 0 0 0 0 0 0 0 0 0 0 0 0 0 0 0 0 0 0 0 0 0 0 0 0 0
0 0 0 0 0 0 0 0 0 0 0 0 0 1 0 0 0 0 0 0 0 0 0 0 0 0 5 2 2 0 0 0 0 0 0 0 0 0 0 0 0 0 0 0 0
0 0 0 0 0 0 0 0 0 0 0 0 0 0 0 0 0 0 0 0 0 0 0 0 0 0 0 3 0 0 0 0 0 0 0 0 0 0 0 0 0 0 0 0 0
0 0 0 0 0 0 0 0 0 0 0 0 0 0 0 0 0 0 0 0 0 0 0 0 3 5 0 1 21 27 22 6 0 0 0 0 0 0 0 0 0 0 0 0 0
0 0 0 0 0 0 0 0 0 1 0 0 0 0 0 0 0 0 0 0 0 0 0 0 0 0 0 17 22 8 8 0 0 0 7 0 0 0 0 0 0 0 0 0 0
0 0 0 0 0 0 0 0 0 2 0 0 0 0 0 0 0 0 0 0 0 0 0 0 0 0 0 0 4 1 1 0 4 0 0 0 0 0 0 0 0 0 0 0 0
0 0 0 0 0 0 0 0 0 1 0 0 0 0 0 0 0 0 0 0 0 0 0 0 0 15 13 26 8 3 0 21 18 9 6 0 0 0 0 0 0 0 0 0 0
0 0 0 0 0 0 0 0 0 0 0 0 0 0 0 0 0 0 0 0 0 0 0 0 0 5 2 10 5 0 0 5 5 13 14 3 0 0 0 0 0 0 0 0 0
0 0 0 0 0 0 0 0 0 0 0 0 0 0 0 0 0 0 0 0 0 0 0 0 0 0 3 0 6 3 14 9 19 27 1 0 0 0 0 0 0 0 0 0 0
0 0 0 0 0 0 0 0 0 0 0 0 0 0 0 0 0 0 0 0 0 0 0 0 0 2 0 5 0 4 2 0 0 5 0 0 0 0 0 0 0 0 0 0 0
0 0 0 0 0 0 0 0 0 0 0 0 0 0 0 0 0 0 0 0 0 0 0 0 0 0 5 1 4 9 0 0 0 0 0 0 0 0 0 0 0 0 0 0 0
0 0 0 0 0 0 0 0 0 0 0 0 0 0 0 0 0 0 0 0 0 0 0 0 0 0 0 0 18 9 1 0 0 0 1 0 0 0 0 0 0 0 0 0 0
0 0 0 0 0 0 0 0 0 0 0 0 0 0 0 0 0 0 0 0 0 0 0 0 0 0 0 2 1 3 9 5 0 0 0 2 0 8 7 0 0 0 0 0 0
0 0 0 0 0 0 0 0 0 0 0 0 0 0 0 0 1 0 0 0 0 0 0 0 0 0 0 0 6 3 3 8 17 4 0 0 0 6 16 6 39 74 0 0 0
0 0 0 0 0 0 0 0 0 0 0 0 0 0 0 0 0 0 0 0 0 0 0 2 3 0 0 0 2 6 11 16 1 2 1 0 0 3 7 7 6 7 8 3 0
0 0 0 0 0 0 0 0 0 0 0 0 0 0 0 0 0 0 0 0 0 0 2 10 0 0 0 0 1 0 7 3 1 5 2 1 0 7 0 17 12 8 5 4 2
0 0 0 0 0 0 0 0 0 0 0 0 0 0 0 0 0 0 0 0 0 0 1 3 5 0 0 0 0 0 0 2 1 0 0 1 3 0 1 7 6 4 4 10 4
0 0 0 0 0 0 0 0 0 0 0 0 0 0 0 0 0 0 0 1 0 0 0 5 2 1 0 0 0 0 0 4 0 0 0 6 1 1 1 7 14 8 5 4 6
0 0 0 0 0 0 0 0 0 0 0 0 0 0 0 0 0 0 0 0 0 0 0 12 0 0 0 1 0 0 0 2 0 0 0 0 0 6 2 3 5 8 7 7 4
0 0 0 0 0 0 0 0 0 0 0 0 0 0 0 0 0 0 0 0 2 2 5 7 2 0 0 0 1 0 0 0 0 0 1 0 1 1 0 0 1 2 3 5 6
CIN
-0 -0 -0 -0 -0 -0 -0 -0 -0 -0 -0 -0 -0 -0 -0 -0 -0 -0 -0 -0 -0 -0 -0 -0 -0 -0 -0 -0 -0 -0 -0 -0 -0 -0 -0 -0 -0 -0 -0 -0 -0 -68 -97 -125 -198
-0 -0 -0 -0 -0 -0 -0 -0 -0 -0 -0 -0 -0 -0 -0 -0 -0 -0 -0 -0 -0 -0 -0 -0 -0 -0 -0 -0 -0 -0 -0 -0 -0 -0 -0 -0 -0 -0 -0 -0 -0 -101 -199 -199 -236
-0 -0 -0 -0 -0 -0 -0 -0 -0 -0 -0 -0 -0 -0 -0 -0 -0 -0 -0 -0 -0 -0 -0 -0 -0 -0 -0 -0 -0 -0 -0 -0 -0 -0 -0 -0 -0 -0 -0 -0 -0 -0 -6 -112 -186
-0 -0 -0 -0 -0 -0 -0 -0 -0 -0 -0 -0 -0 -0 -0 -0 -0 -0 -0 -0 -0 -0 -0 -0 -0 -0 -0 -0 -0 -0 -0 -0 -0 -0 -0 -0 -0 -0 -0 -0 -0 -0 -0 -0 -113
-0 -0 -0 -0 -0 -0 -0 -0 -0 -0 -0 -0 -0 -0 -0 -0 -0 -0 -0 -0 -0 -0 -0 -0 -0 -0 -0 -0 -0 -0 -0 -0 -0 -0 -0 -0 -0 -0 -0 -0 -0 -0 -0 -0 -39
-0 -0 -0 -0 -0 -0 -0 -0 -0 -0 -0 -0 -0 -0 -2 -0 -0 -0 -0 -0 -0 -0 -0 -0 -0 -0 -0 -0 -0 -0 -0 -0 -0 -0 -0 -0 -0 -0 -0 -0 -0 -0 -0 -0 -30
-0 -0 -0 -0 -0 -0 -0 -0 -0 -0 -0 -0 -0 -0 -0 -0 -0 -0 -0 -0 -0 -0 -0 -0 -0 -0 -0 -0 -0 -0 -0 -0 -0 -0 -0 -0 -0 -0 -0 -0 -0 -0 -0 -0 -13
-0 -0 -0 -0 -0 -0 -0 -0 -0 -0 -0 -0 -0 -1 -0 -0 -0 -0 -0 -0 -0 -0 -0 -0 -0 -0 -0 -0 -0 -0 -0 -0 -0 -0 -0 -0 -0 -0 -0 -0 -0 -0 -0 -0 -0
-0 -0 -0 -0 -0 -0 -0 -0 -0 -0 -0 -0 -0 -1 -0 -0 -0 -0 -0 -0 -0 -0 -0 -0 -0 -0 -5 -1 -0 -1 -0 -0 -0 -0 -0 -22 -0 -0 -0 -0 -0 -0 -0 -0 -0
-0 -0 -0 -0 -0 -0 -0 -0 -0 -0 -0 -0 -0 -0 -0 -0 -0 -0 -0 -0 -0 -0 -0 -0 -0 -0 -7 -4 -1 -0 -0 -0 -0 -0 -0 -0 -0 -0 -0 -0 -0 -0 -0 -0 -0
-0 -0 -0 -0 -0 -0 -0 -0 -0 -0 -0 -0 -0 -0 -0 -0 -0 -0 -0 -0 -0 -0 -0 -0 -12 -1 -0 -9 -15 -5 -2 -1 -0 -0 -0 -0 -0 -0 -0 -0 -0 -0 -0 -0 -0
-0 -0 -0 -0 -0 -0 -0 -0 -0 -0 -0 -0 -0 -0 -0 -0 -0 -0 -0 -0 -0 -0 -0 -0 -0 -0 -0 -7 -7 -4 -3 -2 -0 -0 -13 -0 -0 -0 -0 -0 -0 -0 -0 -0 -0
-0 -0 -0 -0 -0 -0 -0 -0 -0 -1 -0 -0 -0 -0 -0 -0 -0 -0 -0 -0 -0 -0 -0 -0 -0 -0 -0 -1 -1 -2 -5 -3 -1 -0 -0 -0 -0 -0 -0 -0 -0 -0 -0 -0 -0
-0 -0 -0 -0 -0 -0 -0 -0 -0 -0 -0 -0 -0 -0 -0 -0 -0 -0 -0 -0 -0 -0 -0 -0 -0 -5 -0 -0 -2 -0 -0 -0 -0 -0 -0 -9 -6 -0 -0 -0 -0 -0 -0 -0 -0
-0 -0 -0 -0 -0 -0 -0 -0 -0 -0 -0 -0 -0 -0 -0 -0 -0 -0 -0 -0 -0 -0 -0 -0 -0 -0 -0 -0 -0 -0 -0 -0 -0 -0 -0 -1 -0 -0 -0 -0 -0 -0 -0 -0 -0
-0 -0 -0 -0 -0 -0 -0 -0 -0 -0 -0 -0 -0 -0 -0 -0 -0 -0 -0 -0 -0 -0 -0 -0 -0 -0 -0 -0 -2 -11 -0 -0 -0 -0 -2 -0 -1 -0 -0 -0 -0 -0 -0 -0 -0
-0 -0 -0 -0 -0 -0 -0 -0 -0 -0 -0 -0 -0 -0 -0 -0 -0 -0 -0 -0 -0 -0 -0 -0 -0 -1 -0 -0 -0 -0 -0 -0 -0 -1 -0 -0 -0 -0 -0 -0 -0 -0 -0 -0 -0
-0 -0 -0 -0 -0 -0 -0 -0 -0 -0 -0 -0 -0 -0 -0 -0 -0 -0 -0 -0 -0 -0 -0 -0 -0 -0 -10 -0 -0 -0 -2 -0 -0 -0 -0 -0 -0 -0 -0 -0 -0 -0 -0 -0 -0
-0 -0 -0 -0 -0 -0 -0 -0 -0 -0 -0 -0 -0 -0 -0 -0 -0 -0 -0 -0 -0 -0 -0 -0 -0 -0 -0 -0 -0 -0 -0 -0 -2 -0 -0 -0 -2 -0 -0 -0 -0 -0 -0 -0 -0
-0 -0 -0 -0 -0 -0 -0 -0 -0 -0 -0 -0 -0 -0 -0 -0 -0 -0 -0 -0 -0 -0 -0 -0 -0 -0 -0 -3 -6 -0 -3 -0 -0 -0 -0 -0 -0 -0 -0 -0 -0 -0 -0 -0 -0
-0 -0 -0 -0 -0 -0 -0 -0 -0 -0 -0 -0 -0 -0 -0 -0 -3 -0 -0 -0 -0 -0 -0 -0 -0 -0 -0 -0 -0 -1 -0 -0 -0 -0 -0 -0 -0 -0 -0 -10 -47 -69 -0 -0 -0
-0 -0 -0 -0 -0 -0 -0 -0 -0 -0 -0 -0 -0 -0 -0 -0 -0 -1 -0 -0 -0 -0 -0 -0 -0 -0 -0 -0 -0 -0 -0 -0 -0 -1 -0 -0 -0 -0 -0 -0 -0 -0 -8 -0 -0
-0 -0 -0 -0 -0 -0 -0 -0 -0 -0 -0 -0 -0 -0 -0 -0 -0 -0 -0 -0 -0 -0 -0 -0 -0 -0 -0 -0 -0 -0 -0 -0 -0 -0 -0 -0 -0 -0 -0 -0 -0 -0 -0 -0 -0
-0 -0 -0 -0 -0 -0 -0 -0 -0 -0 -0 -0 -0 -0 -0 -0 -0 -0 -0 -0 -0 -0 -2 -0 -0 -0 -0 -0 -0 -0 -0 -0 -0 -0 -0 -0 -0 -0 -0 -0 -0 -0 -0 -0 -0
-0 -0 -0 -0 -0 -0 -0 -0 -0 -0 -0 -0 -0 -0 -0 -0 -0 -0 -0 -0 -0 -0 -0 -0 -0 -0 -0 -0 -0 -0 -0 -0 -0 -0 -0 -0 -0 -0 -0 -0 -0 -0 -0 -0 -0
-0 -0 -0 -0 -0 -0 -0 -0 -0 -0 -0 -0 -0 -0 -0 -0 -0 -0 -1 -0 -0 -0 -0 -0 -0 -0 -0 -0 -0 -0 -0 -0 -0 -0 -0 -0 -0 -0 -0 -0 -0 -0 -0 -0 -0
-0 -0 -0 -0 -0 -0 -0 -0 -0 -0 -0 -0 -0 -0 -0 -0 -0 -0 -0 -0 -0 -0 -0 -0 -0 -0 -0 -0 -0 -0 -0 -0 -0 -0 -0 -0 -0 -0 -0 -0 -0 -0 -0 -0 -0
Wind_Speed
8 9 10 12 12 13 13 13 14 14 14 16 17 18 19 21 23 6 4 4 4 10 12 8 6 8 9 4 5 1 3 12 12 5 11 14 15 3 9 5 12 2 8 6 9
8 10 10 11 11 12 13 14 14 14 15 16 16 18 20 21 12 7 1 3 6 10 6 8 10 8 4 4 5 4 5 6 5 8 8 12 11 9 9 14 12 5 8 11 14
10 10 10 10 11 12 13 13 14 15 16 16 16 17 19 16 4 2 1 5 7 8 5 7 7 6 5 4 5 5 12 10 13 12 11 9 14 7 4 7 3 7 14 7 13
11 10 9 9 11 12 13 14 15 15 16 16 16 16 18 2 4 3 3 4 9 9 5 6 5 7 4 7 9 8 11 12 8 7 10 12 9 9 10 10 12 15 14 13 10
9 9 10 11 12 13 16 17 17 17 17 16 14 13 6 4 6 5 4 5 7 6 5 6 6 4 4 9 12 8 8 12 12 12 13 13 13 12 19 9 11 15 11 14 15
9 10 11 13 15 16 18 19 19 18 19 18 13 9 2 4 5 1 4 3 4 4 5 6 4 7 8 7 7 6 15 16 16 16 13 14 14 6 23 9 16 17 13 15 11
9 11 12 14 17 18 20 20 19 19 17 14 8 3 4 10 4 6 5 4 5 5 5 5 6 3 7 9 12 9 9 14 15 8 10 11 17 25 16 15 18 17 15 14 8
10 11 13 15 17 19 22 22 21 18 13 9 3 1 6 6 3 7 5 5 6 5 4 7 8 8 5 7 14 13 7 7 13 10 11 13 23 17 12 19 21 19 12 11 10
10 11 14 16 17 20 21 22 21 8 8 4 0 3 8 5 4 6 4 5 7 8 6 8 5 7 3 7 10 5 9 9 14 11 15 12 21 17 18 19 21 18 15 9 9
10 12 15 17 18 19 21 24 5 1 5 6 3 2 4 6 5 11 6 7 8 6 5 3 3 5 3 6 9 5 7 11 14 15 12 15 13 7 11 15 14 11 14 11 9
11 14 16 16 18 17 13 6 8 7 7 4 8 5 10 8 8 4 12 5 4 2 4 5 6 11 12 17 18 16 19 21 20 20 15 17 16 12 8 11 10 11 8 14 15
12 14 17 17 18 12 5 6 2 4 10 6 10 8 10 6 8 10 4 3 4 10 8 6 18 19 16 17 21 20 21 21 22 15 11 17 19 15 13 16 14 15 12 10 14
12 14 17 19 15 5 7 5 2 3 3 8 5 3 6 3 7 10 3 4 5 8 10 11 17 18 18 18 17 17 17 18 21 15 18 16 18 16 12 12 15 17 17 12 11
13 15 17 20 6 4 3 5 3 1 4 5 4 3 4 5 6 4 2 3 3 10 9 12 10 10 17 20 20 23 21 20 19 15 17 11 12 16 14 16 18 18 16 15 12
11 14 17 9 2 3 4 6 3 3 6 10 7 0 8 4 11 6 2 4 15 20 4 19 18 22 22 18 14 12 11 16 18 17 12 14 6 7 13 17 17 16 18 17 12
10 13 14 4 2 0 4 5 3 9 7 8 5 14 13 4 6 6 7 10 10 7 12 19 20 14 8 11 14 15 12 18 13 9 12 12 11 13 14 23 21 21 20 18 14
9 10 5 1 3 6 4 3 8 8 6 12 8 11 12 8 8 8 14 10 5 9 12 15 6 1 2 11 9 7 6 3 2 5 7 5 10 20 12 21 23 22 19 19 16
11 8 2 2 4 4 3 7 10 5 6 6 7 13 6 12 7 12 12 7 7 7 10 7 12 4 3 9 9 11 4 2 5 2 6 5 8 9 17 21 21 24 19 15 15
12 2 1 3 5 3 6 9 8 6 4 10 13 5 7 5 5 11 6 4 5 11 5 8 9 8 11 9 4 3 4 5 3 4 3 4 5 11 9 9 21 18 12 11 16
2 3 2 6 4 5 8 1 3 2 3 3 2 4 5 8 9 13 6 4 6 11 13 4 12 8 15 2 3 4 8 3 0 3 4 3 9 3 18 14 14 16 15 12 9
3 4 4 6 4 7 6 6 4 5 4 3 3 5 6 7 7 4 6 12 6 11 14 8 5 12 11 6 8 10 10 6 7 3 2 4 3 10 17 17 10 5 3 5 9
3 3 4 2 7 3 3 4 4 5 4 5 3 5 5 4 5 4 6 5 12 12 17 4 5 7 17 7 7 8 12 8 5 2 1 2 3 17 22 13 10 15 13 14 17
2 3 3 5 5 4 5 3 3 3 3 4 3 3 1 4 7 4 6 6 16 19 5 7 3 8 11 4 4 12 18 22 10 6 4 4 6 17 20 9 15 15 17 17 20
4 3 6 6 1 5 3 3 6 4 5 5 6 4 5 3 5 9 11 10 18 17 7 13 4 5 5 10 11 16 21 26 16 6 5 9 10 23 26 20 21 19 21 21 21
3 2 5 2 5 2 4 2 3 5 3 2 4 2 1 5 10 5 6 17 6 6 9 5 4 6 13 13 3 21 21 25 22 18 9 13 14 21 23 18 20 20 22 26 25
4 5 3 2 1 3 1 3 3 4 3 5 3 7 5 5 8 20 14 11 7 7 14 2 5 6 3 11 7 19 24 19 19 20 10 13 15 17 17 19 26 22 25 26 25
0 2 5 2 1 4 3 3 5 4 4 5 5 7 4 8 7 15 16 15 16 16 6 4 4 5 5 8 1 7 23 12 18 22 11 12 10 14 22 25 24 22 25 25 23
Wind_Direction
3 8 12 9 2 355 351 348 348 347 343 342 341 337 333 328 328 314 322 78 54 354 331 316 344 330 328 282 202 319 271 251 260 267 276 300 300 356 316 331 318 232 147 172 128
14 16 14 7 360 353 350 346 343 341 341 338 335 331 330 328 322 294 41 17 7 350 340 339 326 314 311 273 302 179 228 260 289 310 305 313 311 325 355 343 318 12 59 133 131
23 21 15 7 358 352 348 345 340 338 334 329 329 328 326 329 301 72 6 23 359 334 299 295 272 302 277 275 254 255 257 282 289 297 302 308 305 319 334 294 239 2 334 198 162
25 17 8 0 356 350 343 339 334 328 323 321 323 325 321 306 356 54 348 343 333 306 295 309 335 337 305 294 297 289 289 281 291 297 303 295 293 286 266 262 280 304 298 269 242
21 8 1 355 351 349 339 331 325 323 317 310 311 319 340 348 257 218 234 314 322 328 312 310 307 307 299 311 316 296 295 300 317 310 294 290 282 273 276 287 270 287 307 322 210
12 1 356 350 346 341 334 326 320 321 313 304 298 317 273 278 267 198 266 284 286 312 307 314 298 309 273 255 252 301 307 298 295 286 288 294 297 288 276 296 285 285 288 291 217
5 0 354 346 339 335 328 321 317 321 313 308 289 288 267 254 262 326 312 254 252 251 254 247 276 328 328 310 273 271 302 303 284 282 283 294 270 262 291 294 279 270 269 272 241
1 353 348 341 336 332 325 315 313 319 302 305 259 300 254 269 306 316 300 281 284 280 232 250 247 248 223 277 291 287 281 263 264 257 257 229 258 263 268 275 276 281 256 248 265
355 352 346 342 336 329 321 311 309 287 279 260 10 185 278 297 323 311 314 292 281 278 270 276 255 230 256 262 285 228 263 250 284 254 261 244 263 252 246 253 265 268 262 244 248
356 352 344 342 340 332 326 317 334 13 293 232 265 42 284 314 310 301 276 268 259 264 323 279 218 217 216 207 242 226 227 263 264 276 285 292 286 284 243 242 253 256 247 240 242
358 351 343 342 342 342 342 14 12 356 34 287 278 258 286 295 290 276 289 302 286 278 248 256 239 236 235 228 240 260 265 268 269 270 273 273 277 280 287 291 291 281 270 250 240
355 349 339 338 336 348 17 60 93 259 315 278 255 254 264 264 298 277 286 327 340 288 286 277 255 264 264 257 256 269 277 271 276 272 254 269 271 267 262 268 263 275 278 275 256
351 345 337 333 330 53 97 56 318 314 279 299 231 264 276 299 270 299 31 327 291 281 280 269 269 306 285 285 290 277 272 273 273 303 278 260 273 261 249 251 271 264 264 248 262
350 345 335 334 46 322 56 348 2 312 44 295 329 304 313 293 291 343 233 213 298 283 293 271 273 287 301 285 273 271 268 265 271 275 270 200 259 248 241 249 253 258 258 263 249
346 344 335 350 261 43 306 341 293 33 23 297 308 147 325 326 278 339 287 332 286 285 242 261 291 292 287 287 303 275 280 261 262 259 265 243 255 260 235 244 241 241 250 246 240
341 345 338 24 13 219 328 341 45 41 298 334 315 332 342 297 314 288 335 307 266 302 276 281 298 289 288 307 261 262 277 255 243 243 244 240 208 243 219 224 236 241 237 250 227
335 337 347 337 295 309 3 64 35 87 341 304 320 343 324 317 316 351 332 341 34 340 330 328 293 204 346 306 287 233 304 305 218 205 232 170 203 242 235 227 228 231 235 237 224
324 330 296 111 301 343 59 52 54 241 254 325 319 318 330 4 323 346 340 347 37 15 306 343 326 24 278 293 276 290 223 261 244 234 268 260 244 248 230 228 224 233 229 235 224
325 350 335 303 325 41 70 54 201 224 292 326 320 23 324 348 306 356 321 282 50 42 30 324 279 315 299 311 294 11 173 273 281 218 250 235 299 325 342 283 227 235 219 220 222
14 8 306 315 3 53 68 216 213 255 290 32 334 43 321 312 343 347 309 295 359 29 10 273 288 290 328 353 268 276 324 315 319 288 281 304 303 283 328 311 211 224 230 242 232
50 33 268 330 56 46 101 226 280 275 329 187 265 297 253 303 319 297 278 301 28 349 350 291 226 290 329 30 352 4 2 337 289 221 248 308 267 340 333 343 355 57 219 257 208
54 22 294 26 53 48 101 198 265 281 287 278 238 220 235 313 302 281 268 284 346 332 328 304 290 285 290 305 238 356 342 336 271 237 174 252 303 346 341 326 41 50 39 36 57
91 252 319 75 80 329 319 308 259 282 289 310 277 192 183 322 325 249 282 276 321 330 311 337 308 308 337 39 51 2 345 344 312 195 318 22 353 338 338 33 55 61 57 59 63
78 18 334 39 132 130 63 289 302 246 255 248 264 325 1 295 229 279 290 311 325 311 329 346 260 243 262 284 313 352 358 8 11 30 329 24 349 344 352 29 49 52 58 61 62
49 241 180 318 332 48 108 188 277 326 262 316 314 168 174 300 298 239 253 314 295 324 0 311 286 282 291 263 154 30 8 15 19 2 31 9 15 353 352 30 49 59 64 60 59
128 135 340 168 257 20 40 272 275 293 267 288 180 283 186 219 211 292 307 326 286 309 328 335 278 321 307 116 72 41 14 22 17 6 5 16 32 4 1 27 45 45 59 58 54
231 19 103 305 42 70 230 264 269 344 284 239 315 308 286 245 250 266 267 270 264 293 310 293 307 328 308 323 353 26 9 10 25 26 346 16 3 10 22 37 33 33 46 56 55